Time,TemperatureF,DewpointF,PressureIn,WindDirection,WindDirectionDegrees,WindSpeedMPH,WindSpeedGustMPH,Humidity,HourlyPrecipIn,Conditions,Clouds,dailyrainin,SoftwareType,DateUTC
2013-05-03 00:00:00,52.8,52.0,30.28,North,360,0.0,1.0,96,0.00,,,0.02,weatherlink.com 1.10,2013-05-03 04:00:00,
2013-05-03 00:15:00,52.8,52.0,30.27,North,360,0.0,0.0,96,0.00,,,0.02,weatherlink.com 1.10,2013-05-03 04:15:00,
2013-05-03 00:30:00,52.7,52.0,30.27,North,360,0.0,0.0,96,0.00,,,0.00,weatherlink.com 1.10,2013-05-03 04:30:00,
2013-05-03 00:45:00,52.4,51.0,30.27,North,360,0.0,0.0,95,0.00,,,0.00,weatherlink.com 1.10,2013-05-03 04:45:00,
2013-05-03 01:00:00,52.1,51.0,30.26,ENE,60,1.0,2.0,96,0.00,,,0.00,weatherlink.com 1.10,2013-05-03 05:00:00,
2013-05-03 01:16:00,51.7,50.0,30.26,NE,34,0.0,5.0,95,0.00,,,0.00,weatherlink.com 1.10,2013-05-03 05:16:00,
2013-05-03 01:31:00,51.2,50.0,30.26,NNW,338,0.0,2.0,95,0.00,,,0.00,weatherlink.com 1.10,2013-05-03 05:31:00,
2013-05-03 01:46:00,50.7,49.0,30.26,NE,54,0.0,1.0,94,0.00,,,0.00,weatherlink.com 1.10,2013-05-03 05:46:00,
2013-05-03 02:01:00,50.2,49.0,30.25,ENE,68,0.0,2.0,94,0.00,,,0.00,weatherlink.com 1.10,2013-05-03 06:01:00,
2013-05-03 02:16:00,49.9,49.0,30.25,ENE,68,0.0,1.0,95,0.00,,,0.00,weatherlink.com 1.10,2013-05-03 06:16:00,
2013-05-03 02:31:00,49.4,48.0,30.25,ENE,68,0.0,0.0,94,0.00,,,0.00,weatherlink.com 1.10,2013-05-03 06:31:00,
2013-05-03 02:46:00,48.8,47.0,30.24,ENE,67,0.0,1.0,94,0.00,,,0.00,weatherlink.com 1.10,2013-05-03 06:46:00,
2013-05-03 03:01:00,48.2,47.0,30.24,ENE,68,0.0,0.0,94,0.00,,,0.00,weatherlink.com 1.10,2013-05-03 07:01:00,
2013-05-03 03:16:00,47.7,46.0,30.24,ENE,68,0.0,1.0,95,0.00,,,0.00,weatherlink.com 1.10,2013-05-03 07:16:00,
2013-05-03 03:31:00,47.3,46.0,30.24,ENE,67,0.0,0.0,95,0.00,,,0.00,weatherlink.com 1.10,2013-05-03 07:31:00,
2013-05-03 03:46:00,46.7,45.0,30.24,ENE,68,0.0,0.0,95,0.00,,,0.00,weatherlink.com 1.10,2013-05-03 07:46:00,
2013-05-03 04:01:00,46.3,45.0,30.24,ENE,68,0.0,0.0,95,0.00,,,0.00,weatherlink.com 1.10,2013-05-03 08:01:00,
2013-05-03 04:16:00,46.1,45.0,30.24,ENE,67,0.0,0.0,95,0.00,,,0.00,weatherlink.com 1.10,2013-05-03 08:16:00,
2013-05-03 04:31:00,45.9,45.0,30.24,ENE,68,0.0,0.0,96,0.00,,,0.00,weatherlink.com 1.10,2013-05-03 08:31:00,
2013-05-03 04:46:00,45.5,45.0,30.24,ENE,68,0.0,0.0,96,0.00,,,0.00,weatherlink.com 1.10,2013-05-03 08:46:00,
2013-05-03 05:01:00,45.4,44.0,30.24,ENE,68,0.0,0.0,96,0.00,,,0.00,weatherlink.com 1.10,2013-05-03 09:01:00,
2013-05-03 05:16:00,45.6,45.0,30.25,ENE,68,0.0,0.0,96,0.00,,,0.00,weatherlink.com 1.10,2013-05-03 09:16:00,
2013-05-03 05:31:00,46.2,45.0,30.25,ENE,68,0.0,1.0,96,0.01,,,0.01,weatherlink.com 1.10,2013-05-03 09:31:00,
2013-05-03 05:46:00,46.4,46.0,30.25,ENE,67,0.0,1.0,97,0.01,,,0.01,weatherlink.com 1.10,2013-05-03 09:46:00,
2013-05-03 06:01:00,46.1,45.0,30.25,ENE,67,0.0,0.0,96,0.01,,,0.01,weatherlink.com 1.10,2013-05-03 10:01:00,
2013-05-03 06:16:00,45.8,45.0,30.25,ENE,68,0.0,0.0,96,0.01,,,0.01,weatherlink.com 1.10,2013-05-03 10:16:00,
2013-05-03 06:31:00,45.3,44.0,30.26,ENE,67,0.0,0.0,96,0.00,,,0.01,weatherlink.com 1.10,2013-05-03 10:31:00,
2013-05-03 06:46:00,45.4,44.0,30.26,ENE,67,0.0,0.0,96,0.00,,,0.01,weatherlink.com 1.10,2013-05-03 10:46:00,
2013-05-03 07:01:00,46.0,45.0,30.27,ENE,67,0.0,0.0,97,0.00,,,0.01,weatherlink.com 1.10,2013-05-03 11:01:00,
2013-05-03 07:16:00,47.0,46.0,30.27,ENE,68,0.0,1.0,97,0.00,,,0.01,weatherlink.com 1.10,2013-05-03 11:16:00,
2013-05-03 07:31:00,47.7,47.0,30.27,ENE,67,0.0,1.0,97,0.00,,,0.01,weatherlink.com 1.10,2013-05-03 11:31:00,
2013-05-03 07:46:00,48.0,47.0,30.27,ENE,68,1.0,1.0,97,0.00,,,0.01,weatherlink.com 1.10,2013-05-03 11:46:00,
2013-05-03 08:01:00,48.6,48.0,30.28,East,92,2.0,3.0,97,0.00,,,0.01,weatherlink.com 1.10,2013-05-03 12:01:00,
2013-05-03 08:16:00,49.2,48.0,30.28,East,96,0.0,4.0,97,0.00,,,0.01,weatherlink.com 1.10,2013-05-03 12:16:00,
2013-05-03 08:31:00,49.8,49.0,30.29,North,360,3.0,4.0,97,0.00,,,0.01,weatherlink.com 1.10,2013-05-03 12:31:00,
2013-05-03 08:46:00,50.4,49.0,30.29,NNW,346,1.0,4.0,96,0.00,,,0.01,weatherlink.com 1.10,2013-05-03 12:46:00,
2013-05-03 09:01:00,51.2,50.0,30.29,NE,52,3.0,6.0,94,0.00,,,0.01,weatherlink.com 1.10,2013-05-03 13:01:00,
2013-05-03 09:16:00,52.2,50.0,30.30,ENE,66,1.0,5.0,91,0.00,,,0.01,weatherlink.com 1.10,2013-05-03 13:16:00,
2013-05-03 09:31:00,53.2,50.0,30.30,East,90,1.0,3.0,89,0.00,,,0.01,weatherlink.com 1.10,2013-05-03 13:31:00,
2013-05-03 09:46:00,54.5,50.0,30.30,NE,34,3.0,6.0,85,0.00,,,0.01,weatherlink.com 1.10,2013-05-03 13:46:00,
2013-05-03 10:01:00,55.1,50.0,30.30,ENE,59,3.0,8.0,83,0.00,,,0.01,weatherlink.com 1.10,2013-05-03 14:01:00,
2013-05-03 10:17:00,56.5,50.0,30.30,NE,41,3.0,8.0,80,0.00,,,0.01,weatherlink.com 1.10,2013-05-03 14:17:00,
2013-05-03 10:32:00,56.9,50.0,30.30,NW,319,1.0,10.0,77,0.00,,,0.01,weatherlink.com 1.10,2013-05-03 14:32:00,
2013-05-03 10:47:00,58.3,50.0,30.30,ENE,65,2.0,12.0,74,0.00,,,0.01,weatherlink.com 1.10,2013-05-03 14:47:00,
2013-05-03 11:02:00,59.9,49.0,30.30,ENE,67,2.0,11.0,68,0.00,,,0.01,weatherlink.com 1.10,2013-05-03 15:02:00,
2013-05-03 11:17:00,61.0,49.0,30.30,NE,56,5.0,10.0,65,0.00,,,0.01,weatherlink.com 1.10,2013-05-03 15:17:00,
2013-05-03 11:32:00,61.8,49.0,30.29,NW,323,2.0,10.0,63,0.00,,,0.01,weatherlink.com 1.10,2013-05-03 15:32:00,
2013-05-03 11:47:00,61.9,49.0,30.29,West,269,3.0,13.0,63,0.00,,,0.01,weatherlink.com 1.10,2013-05-03 15:47:00,
2013-05-03 12:02:00,62.4,50.0,30.29,East,87,6.0,10.0,64,0.00,,,0.01,weatherlink.com 1.10,2013-05-03 16:02:00,
2013-05-03 12:17:00,64.0,50.0,30.28,ESE,105,5.0,10.0,61,0.00,,,0.01,weatherlink.com 1.10,2013-05-03 16:17:00,
2013-05-03 12:32:00,64.3,49.0,30.28,North,355,1.0,10.0,58,0.00,,,0.01,weatherlink.com 1.10,2013-05-03 16:32:00,
2013-05-03 12:47:00,65.1,50.0,30.27,East,96,2.0,8.0,59,0.00,,,0.01,weatherlink.com 1.10,2013-05-03 16:47:00,
2013-05-03 13:02:00,65.8,49.0,30.27,ENE,63,3.0,10.0,55,0.00,,,0.01,weatherlink.com 1.10,2013-05-03 17:02:00,
2013-05-03 13:17:00,66.1,49.0,30.26,West,278,1.0,10.0,55,0.00,,,0.01,weatherlink.com 1.10,2013-05-03 17:17:00,
2013-05-03 13:32:00,66.3,49.0,30.25,East,88,2.0,11.0,55,0.00,,,0.01,weatherlink.com 1.10,2013-05-03 17:32:00,
2013-05-03 13:47:00,66.7,50.0,30.25,NE,54,8.0,11.0,55,0.00,,,0.01,weatherlink.com 1.10,2013-05-03 17:47:00,
2013-05-03 14:02:00,67.7,50.0,30.24,ENE,62,4.0,9.0,54,0.00,,,0.01,weatherlink.com 1.10,2013-05-03 18:02:00,
2013-05-03 14:17:00,67.6,50.0,30.24,NNE,19,5.0,12.0,54,0.00,,,0.01,weatherlink.com 1.10,2013-05-03 18:17:00,
2013-05-03 14:32:00,68.5,50.0,30.24,NE,56,4.0,11.0,51,0.00,,,0.01,weatherlink.com 1.10,2013-05-03 18:32:00,
2013-05-03 14:47:00,68.6,50.0,30.24,SE,128,2.0,12.0,51,0.00,,,0.01,weatherlink.com 1.10,2013-05-03 18:47:00,
2013-05-03 15:02:00,68.1,50.0,30.23,NE,39,7.0,14.0,53,0.00,,,0.01,weatherlink.com 1.10,2013-05-03 19:02:00,
2013-05-03 15:17:00,67.9,49.0,30.22,SE,146,5.0,8.0,51,0.00,,,0.01,weatherlink.com 1.10,2013-05-03 19:17:00,
2013-05-03 15:32:00,67.5,50.0,30.22,NW,320,1.0,7.0,54,0.00,,,0.01,weatherlink.com 1.10,2013-05-03 19:32:00,
2013-05-03 15:47:00,68.1,51.0,30.21,NW,312,1.0,6.0,55,0.00,,,0.01,weatherlink.com 1.10,2013-05-03 19:47:00,
2013-05-03 16:02:00,67.4,51.0,30.21,ENE,58,4.0,14.0,55,0.00,,,0.01,weatherlink.com 1.10,2013-05-03 20:02:00,
2013-05-03 16:17:00,67.2,51.0,30.21,East,89,2.0,9.0,57,0.00,,,0.01,weatherlink.com 1.10,2013-05-03 20:17:00,
2013-05-03 16:32:00,67.1,52.0,30.20,North,11,2.0,7.0,58,0.00,,,0.01,weatherlink.com 1.10,2013-05-03 20:32:00,
2013-05-03 16:47:00,66.8,50.0,30.20,SSE,152,1.0,7.0,56,0.00,,,0.01,weatherlink.com 1.10,2013-05-03 20:47:00,
2013-05-03 17:02:00,66.7,50.0,30.20,North,355,2.0,7.0,56,0.00,,,0.01,weatherlink.com 1.10,2013-05-03 21:02:00,
2013-05-03 17:17:00,66.6,50.0,30.20,NE,34,1.0,5.0,56,0.00,,,0.01,weatherlink.com 1.10,2013-05-03 21:17:00,
2013-05-03 17:32:00,65.8,50.0,30.20,NNE,32,2.0,7.0,57,0.00,,,0.01,weatherlink.com 1.10,2013-05-03 21:32:00,
2013-05-03 17:47:00,65.7,51.0,30.20,North,5,4.0,5.0,59,0.00,,,0.01,weatherlink.com 1.10,2013-05-03 21:47:00,
2013-05-03 18:02:00,65.2,51.0,30.19,ESE,109,1.0,6.0,61,0.01,,,0.02,weatherlink.com 1.10,2013-05-03 22:02:00,
2013-05-03 18:17:00,64.6,51.0,30.19,ENE,74,3.0,7.0,61,0.01,,,0.02,weatherlink.com 1.10,2013-05-03 22:17:00,
2013-05-03 18:33:00,64.1,52.0,30.19,NE,36,1.0,3.0,65,0.01,,,0.02,weatherlink.com 1.10,2013-05-03 22:33:00,
2013-05-03 18:48:00,63.9,52.0,30.18,ENE,62,1.0,4.0,65,0.01,,,0.02,weatherlink.com 1.10,2013-05-03 22:48:00,
2013-05-03 19:03:00,63.4,52.0,30.18,NE,53,1.0,5.0,66,0.00,,,0.02,weatherlink.com 1.10,2013-05-03 23:03:00,
2013-05-03 19:18:00,62.9,51.0,30.18,NNE,23,1.0,3.0,66,0.00,,,0.02,weatherlink.com 1.10,2013-05-03 23:18:00,
2013-05-03 19:33:00,62.4,52.0,30.18,NNE,13,0.0,5.0,68,0.00,,,0.02,weatherlink.com 1.10,2013-05-03 23:33:00,
2013-05-03 19:48:00,61.8,51.0,30.18,NNE,22,0.0,3.0,69,0.00,,,0.02,weatherlink.com 1.10,2013-05-03 23:48:00,
2013-05-03 20:03:00,61.0,52.0,30.18,NE,46,0.0,2.0,71,0.00,,,0.02,weatherlink.com 1.10,2013-05-04 00:03:00,
2013-05-03 20:18:00,60.1,49.0,30.18,North,5,1.0,4.0,68,0.00,,,0.02,weatherlink.com 1.10,2013-05-04 00:18:00,
2013-05-03 20:33:00,59.6,47.0,30.19,NNE,27,0.0,7.0,64,0.00,,,0.02,weatherlink.com 1.10,2013-05-04 00:33:00,
2013-05-03 20:48:00,59.2,46.0,30.19,NNE,31,2.0,8.0,61,0.00,,,0.02,weatherlink.com 1.10,2013-05-04 00:48:00,
2013-05-03 21:03:00,58.5,46.0,30.19,South,190,0.0,3.0,63,0.00,,,0.02,weatherlink.com 1.10,2013-05-04 01:03:00,
2013-05-03 21:18:00,57.7,45.0,30.20,North,5,1.0,7.0,62,0.00,,,0.02,weatherlink.com 1.10,2013-05-04 01:18:00,
2013-05-03 21:33:00,57.4,44.0,30.21,ESE,106,2.0,8.0,61,0.00,,,0.02,weatherlink.com 1.10,2013-05-04 01:33:00,
2013-05-03 21:48:00,56.9,44.0,30.21,ESE,117,4.0,9.0,63,0.00,,,0.02,weatherlink.com 1.10,2013-05-04 01:48:00,
2013-05-03 22:03:00,56.6,44.0,30.21,SE,128,3.0,10.0,63,0.00,,,0.02,weatherlink.com 1.10,2013-05-04 02:03:00,
2013-05-03 22:18:00,55.9,44.0,30.22,West,262,1.0,9.0,64,0.00,,,0.02,weatherlink.com 1.10,2013-05-04 02:18:00,
2013-05-03 22:33:00,55.1,43.0,30.22,North,355,4.0,10.0,65,0.00,,,0.02,weatherlink.com 1.10,2013-05-04 02:33:00,
2013-05-03 22:48:00,54.4,44.0,30.23,East,80,1.0,7.0,67,0.00,,,0.02,weatherlink.com 1.10,2013-05-04 02:48:00,
2013-05-03 23:03:00,53.6,43.0,30.22,ENE,57,4.0,8.0,68,0.00,,,0.02,weatherlink.com 1.10,2013-05-04 03:03:00,
2013-05-03 23:18:00,52.9,43.0,30.22,East,84,6.0,11.0,69,0.00,,,0.02,weatherlink.com 1.10,2013-05-04 03:18:00,
2013-05-03 23:33:00,52.3,43.0,30.22,ENE,67,5.0,10.0,70,0.00,,,0.02,weatherlink.com 1.10,2013-05-04 03:33:00,
2013-05-03 23:48:00,51.7,43.0,30.22,North,355,5.0,9.0,72,0.00,,,0.02,weatherlink.com 1.10,2013-05-04 03:48:00,